www.pogodaiklimat.ru

Погода и климат >> Архив погоды >> Канада >> Coral Harbour Arpt


ПОГОДА в Coral Harbour Arpt

  • Прогноз погоды в Coral Harbour Arpt
  • Монитор погоды в Coral Harbour Arpt
  • Климат города

АРХИВ ПОГОДЫ в Coral Harbour Arpt

Время (UTC), дата Ветер
(напр.,м/с)
 
Видим.   Явления Облачность Т
(С)
Тd
(С)
f
(%)
Тe
(С)
Тes
(С)
Комфортность P
(гПа)
Po
(гПа)
Тmin
(С)
Tmax
(С)
R
(мм)
R24
(мм)
S
(см)
15 11.11 С 7 24 км 3/3 1000 м
[]
-21.9 -24.0 83 -34 -34 опасность
обморожения
1016.0 1007.5
18 11.11 С 5 24 км {снег, туман} 1/1 1000 м
[Sc]
-24.6 -27.3 78 -35 -35 опасность
обморожения
1016.7 1008.2 -28.1 -17.1 0.0 30
21 11.11 С 5 24 км 1/1 1000 м
[]
-22.8 -25.2 81 -34 -34 опасность
обморожения
1017.9 1009.4
00 12.11 С 3 24 км ясно -24.6 -27.4 77 -32 -32 опасность
обморожения
1019.0 1010.5 -28.1 -18.4
03 12.11 СВ 5 24 км 6/6 1500 м
[]
-17.3 -19.3 84 -26 -26 1018.9 1010.5
06 12.11 СВ 3 24 км 10/10 1500 м
[]
-16.0 -18.0 85 -23 -23 1019.3 1010.9 -28.1 -14.3 150
09 12.11 СВ 4 24 км 10/10 1500 м
[]
-14.3 -16.2 85 -22 -22 1019.4 1011.0
12 12.11 СВ 6 24 км слабый снег 10/8 1000 м
[Sc Ac As]
-12.3 -14.0 87 -21 -21 1018.8 1010.4 -24.4 -14.3 0.0 30
15 12.11 СВ 6 800 м н/о -11.7 -13.3 88 -21 -21 1017.8 1009.5
18 12.11 С 5 19 км слабый снег 9/9 300 м
[Sc]
-14.2 -16.8 81 -22 -22 1017.6 1009.3 -26.0 -10.7 1 33
21 12.11 СЗ 7 24 км 8/8 300 м
[]
-20.8 -23.2 81 -32 -32 опасность
обморожения
1018.0 1009.6
00 13.11 С 6 24 км {снег} 5/0
[Ci fib]
-18.9 -21.3 81 -29 -29 1017.9 1009.6 -21.8 -10.7 0.0 33
03 13.11 С 5 24 км 4/4 1000 м
[]
-15.1 -17.3 83 -24 -24 1017.0 1008.7
06 13.11 СВ 6 24 км 6/6 600 м
[Sc]
-11.2 -13.1 86 -20 -20 1016.0 1007.7 -21.8 -10.7 18
09 13.11 В 11 24 км 10/10 600 м
[]
-10.4 -12.2 87 -22 -22 1014.9 1006.6
12 13.11 В 11 1200 м слабый снег {метель} н/о -10.2 -12.0 87 -21 -21 1014.3 1006.0 -10.7 0.4 33
15 13.11 В 10 3200 м 10/10 300 м
[]
-9.0 -10.8 87 -19 -19 1014.1 1005.8
18 13.11 В 9 19 км в посл. час снег {метель} 10/4 300 м
[Sc Ac inh Ci fib]
-9.7 -11.8 85 -20 -20 1014.0 1005.8 0.6 33
21 13.11 В 9 19 км 8/8 1500 м
[]
-10.8 -13.2 82 -21 -21 1013.7 1005.5
00 14.11 СВ 10 24 км слабый снег 9/9 1500 м
[Sc]
-12.2 -15.0 80 -23 -23 1013.6 1005.4 -8.8 0.2 33
03 14.11 СВ 9 24 км 3/3 1500 м
[]
-11.2 -13.8 81 -21 -21 1013.0 1004.8
06 14.11 СВ 9 >70 км позёмок {снег} 5/5 600 м
[Sc]
-12.3 -15.0 80 -23 -23 1012.4 1004.2 0.0 111
09 14.11 СВ 12 24 км 6/6 600 м
[]
-13.6 -16.4 79 -26 -26 1012.0 1003.8
12 14.11 СВ 12 19 км слабый снег 4/4 600 м
[Sc]
-13.5 -16.2 80 -26 -26 1011.7 1003.5 -13.6 0.0 33
15 14.11 СВ 11 19 км 10/0 2000 м
[]
-12.1 -14.8 80 -23 -23 1011.6 1003.4
18 14.11 СВ 9 4800 м слабый снег 10/10 1000 м
[Sc]
-10.4 -13.0 81 -21 -21 1011.7 1003.5 -13.7 -10.4 0.0 33
21 14.11 СВ 9 12 км 10/10 1000 м
[]
-10.7 -12.9 84 -21 -21 1011.7 1003.5
00 15.11 СВ 9 16 км слабый снег 10/10 1000 м
[Sc]
-11.0 -13.2 84 -21 -21 1011.8 1003.6 -13.7 -10.3 0.2 33
03 15.11 СВ 10 12 км 10/10 600 м
[]
-11.1 -13.2 84 -22 -22 1011.5 1003.3
06 15.11 СВ 10 12 км слабый снег 10/10 600 м
[Sc]
-11.0 -13.4 82 -22 -22 1011.5 1003.3 -13.7 -10.3 0.6 141
09 15.11 СВ 10 19 км 10/10 600 м
[]
-10.9 -13.4 82 -22 -22 1011.8 1003.6
12 15.11 СВ 11 19 км слабый снег 10/10 600 м
[Sc]
-12.2 -14.2 85 -24 -24 1012.0 1003.8 -12.4 -10.3 0.2 33
15 15.11 СВ 11 1200 м 10/10 300 м
[]
-12.4 -14.3 86 -24 -24 1012.4 1004.2
18 15.11 СВ 13 1200 м слабый снег 10/10 300 м
[Sc]
-13.3 -15.6 83 -26 -26 1012.6 1004.4 -13.4 -10.8 0.2 33
21 15.11 СВ 13 1200 м 8/8 1500 м
[]
-13.6 -16.1 81 -26 -26 1012.9 1004.7
00 16.11 СВ 12 800 м слабый снег {метель} 6/6 600 м
[Sc]
-15.6 -18.1 81 -29 -29 1013.4 1005.1 -15.6 -11.5 1 34
03 16.11 СВ 13 1200 м 5/5 600 м
[]
-16.9 -19.1 83 -31 -31 опасность
обморожения
1013.2 1004.9
06 16.11 СВ 14 200 м слабый снег {метель} н/о -17.6 -19.9 82 -32 -32 опасность
обморожения
1013.2 1004.9 -17.6 -10.8 0.4 62
09 16.11 СВ 14 200 м 3/3 600 м
[]
-19.1 -21.6 81 -34 -34 опасность
обморожения
1013.6 1005.3
12 16.11 С 12 4800 м метель 4/4 1000 м
[Sc]
-20.9 -23.7 78 -36 -36 опасность
обморожения
1014.5 1006.1 -21.0 -10.8 33
15 16.11 С 10 19 км 8/8 600 м
[]
-22.1 -25.2 76 -36 -36 опасность
обморожения
1014.6 1006.2
18 16.11 С 8 19 км позёмок 6/6 1500 м
[Sc]
-23.4 -26.8 74 -37 -37 опасность
обморожения
1014.3 1005.9 -23.5 -17.6
21 16.11 С 7 24 км 9/0 2000 м
[]
-23.2 -26.6 74 -36 -36 опасность
обморожения
1013.9 1005.5
00 17.11 СЗ 8 24 км 9/0 2000 м
[Ac As]
-25.9 -29.5 72 -40 -40 опасность
обморожения
1013.4 1004.9 -25.9 -20.9
03 17.11 СЗ 9 24 км 1/0 2000 м
[]
-28.9 -32.4 72 -45 -45 опасность
обморожения
1012.0 1003.5
06 17.11 С 8 24 км ясно -30.1 -33.6 71 -46 -46 опасность
обморожения
1010.9 1002.4 -30.5 -17.6 92
09 17.11 С 6 24 км ясно -30.1 -33.6 71 -43 -43 опасность
обморожения
1010.5 1002.0
12 17.11 С 8 24 км ясно -28.8 -32.4 71 -44 -44 опасность
обморожения
1010.0 1001.5 -32.1 -17.6 33
15 17.11 С 8 24 км ясно -30.8 -34.5 70 -46 -46 опасность
обморожения
1009.7 1001.1
18 17.11 С 6 24 км ясно -30.5 -34.3 69 -44 -44 опасность
обморожения
1009.8 1001.2 -32.1 -28.6
21 17.11 С 6 24 км 1/0
[]
-32.0 -35.7 70 -46 -46 опасность
обморожения
1010.1 1001.5
00 18.11 СЗ 6 24 км ясно -34.0 -37.5 70 -48 -48 опасность
обморожения
1010.5 1001.9 -34.3 -28.6
03 18.11 С 7 24 км ясно -33.3 -36.6 72 -49 -49 опасность
обморожения
1010.5 1001.9
06 18.11 0 н/о -36.7 -34.3 -28.6
09 18.11 С 5 24 км ясно -33.6 -37.1 71 -47 -47 опасность
обморожения
1011.5 1002.9

 

Местоположение метеостанции Coral Harbour Arpt (Канада): широта 64.20 долгота -83.36 высота над уровнем моря 64 м.

В архиве по умолчанию представлена погода в Coral Harbour Arpt за последнюю неделю. Архивные данные за месяц целиком и за предыдущие месяцы, начиная с января 2011 года, Вы можете получить, выбрав интересующий диапазон дат из раскрывающегося списка и нажав кнопку "Ввод!".


*Определитесь, кто Вы:
робот инопланетянин человек

Внимание! Время в таблицах - всемирное. Для получения местного времени необходимо прибавить поправку, которая в Coral Harbour Arpt равна -5 ч.

Смотрите также архив погоды в соседних городах и на ближайших метеорологических станциях:

Погода в Cape Dorset Climate (Канада) (330 км)
Погода в Wager Bay (Канада) (340 км)
Погода в Rankin Inlet (Канада) (460 км)
Погода в Hall Beach Climate (Канада) (518 км)
Погода в Pelly Bay (Канада) (549 км)
Погода в Kugaaruk climate (Канада) (560 км)
Погода в Rowley Island (Канада) (575 км)
Погода в Parc National Des Pingualuit (Канада) (589 км)
Погода в Baker Lake Climate (Канада) (610 км)
Погода в Baker Lake Airport (Канада) (613 км)

Пояснения к столбцам:

Ветер - указаны скорость ветра в м/с - средняя за 10 мин, порывы в срок и между сроками (в фигурных скобках) и направление, откуда дует ветер: С - северный, СВ - северо-восточный, В - восточный, ЮВ - юго-восточный, Ю - южный, ЮЗ - юго-западный, З - западный, СЗ - северо-западный.
Видимость - горизонтальная дальность видимости в метрах или километрах. При видимости от 1 до 10 км при отсутствии осадков обычно наблюдается дымка, при ухудшении видимости до 1 км и менее - туман. В сухую погоду видимость может ухудшаться дымом, пылью или мглою.
Явления - указаны атмосферные явления, наблюдавшиеся в срок или в последний час перед сроком; фигурными скобками обозначены явления, наблюдавшиеся между сроками (за 1-3 часа до срока); квадратными скобками обозначены град или гололедные отложения с указанием их диаметра в мм.
Облачность - указаны через наклонную черту общая и нижняя облачность в баллах и высота нижней границы облаков в метрах; квадратными скобками обозначены формы облаков: Ci - перистые, Cs - перисто-слоистые, Cc - перисто-кучевые, Ac - высококучевые, As - высокослоистые, Sc - слоисто-кучевые, Ns - слоисто-дождевые, Cu - кучевые, Cb - кучево-дождевые. Подробнее классификацию облаков см. в Атласе облаков (PDF).
T - Температура воздуха - температура, измеренная на высоте 2 м над землей.
Td - Температура точки росы - температура, при понижении до которой содержащийся в воздухе водяной пар достигнет насыщения.
f - Относительная влажность воздуха - влажноcть воздуха, измеренная на высоте 2 м над землей.
Te - Эффективная температура - температура, которую ощущает одетый по сезону человек в тени. Характеристика душности погоды. При расчете учитывается влияние влажности воздуха и скорости ветра на теплоощущения человека.
Tes - Эффективная температура на солнце - температура, которую ощущает человек, с поправкой на солнечный нагрев. Характеристика знойности погоды. Зависит от высоты солнца над горизонтом, облачности и скорости ветра. Ночью, в пасмурную погоду, а также при ветре 12 м/с и более поправка равна нулю.
P - Атмосферное давление - приведенное к уровню моря атмосферное давление.
Po - Атмосферное давление - измеренное на уровне метеостанции атмосферное давление.
Tmin - Минимальная температура - минимум температуры воздуха на высоте 2 м над землей.
Tmax - Максимальная температура - максимум температуры воздуха на высоте 2 м над землей.
R - Количество осадков - Количество выпавших осадков за период времени, мм. При наведении курсора мыши на число - период времени, за который выпало указанное количество осадков.
R24 - Количество осадков - Количество выпавших осадков за 24 часа, мм.
S - Снежный покров - Высота снежного покрова, см. При наведении курсора мыши на число - состояние снежного покрова и степень покрытия местности в баллах.